[[{"header":{"parameterUnit":"m.s-1","parameterCategory":1,"la1":30.2991,"la2":30.254,"lo1":-89.0895,"lo2":-89.0444,"dy":0.0017,"dx":0.0017,"nx":28,"ny":28,"refTime":"2024-07-28T03:00:00:Z","depth":0,"parameterNumber":2,"parameterNumberName":"U-component_of_WINDS"},"data":[0,0,0,0,0,0,0,0,0,0,0,0,0,0,0,0,0,0,0,0,0,0,0,0,0,0,0,0,0,0,0,0,0,0,0,0,0,0,0,0,0,0,0,0,0,0,0,0,0,0,0,0,0,0,0,0,0,0,-0.8782,-0.8781,0,-0.8673,-0.8671,-0.867,-0.8576,-0.8575,-0.8573,-0.8572,-0.8459,-0.8457,-0.8455,0,0,0,0,0,0,0,0,0,0,0,0,0,-0.8909,-0.8907,-0.8782,-0.8781,-0.8779,-0.8673,-0.8671,-0.867,-0.8576,-0.8574,-0.8573,-0.8572,-0.8459,-0.8457,-0.8454,0,0,0,0,0,0,0,0,0,0,0,0,0,-0.8832,-0.8906,-0.8782,-0.872,-0.8713,-0.8673,-0.8671,-0.8669,-0.8576,-0.8574,-0.8573,-0.8571,-0.846,-0.8457,-0.8454,-0.8467,0,0,-0.8445,-0.8443,0,0,0,0,0,0,0,0,-0.8837,-0.8827,-0.873,-0.8724,-0.8716,-0.8636,-0.8674,-0.8601,-0.8576,-0.8628,-0.8572,-0.8571,-0.8519,-0.8511,-0.8494,-0.8462,-0.8457,-0.8444,-0.8442,-0.8441,-0.844,0,0,0,0,0,0,0,-0.8842,-0.8832,-0.8739,-0.8729,-0.872,-0.8697,-0.8684,-0.866,-0.8584,-0.8623,-0.8616,-0.8605,-0.8515,-0.8497,-0.849,-0.8455,-0.8444,-0.8442,-0.844,-0.8439,-0.843,-0.8431,0,0,0,0,0,0,-0.8857,-0.8837,-0.8742,-0.8735,-0.8774,-0.8696,-0.8682,-0.8663,-0.8584,-0.857,-0.8606,-0.8601,-0.8503,-0.8494,-0.8486,-0.8497,-0.8441,-0.8438,-0.8437,-0.8428,-0.843,-0.8432,0,0,0,0,0,0,-0.886,-0.885,-0.8746,-0.8784,-0.8769,-0.8695,-0.8676,-0.8662,-0.8644,-0.8571,-0.8556,-0.8602,-0.8501,-0.849,-0.8473,-0.8491,-0.8437,-0.8434,-0.8426,-0.8429,-0.8431,-0.8518,0,0,0,0,0,0,-0.8864,-0.8851,-0.8855,-0.8785,-0.8768,-0.8736,-0.8677,-0.8661,-0.8639,-0.8631,-0.8563,-0.855,-0.8499,-0.8478,-0.847,-0.8486,-0.8432,-0.8424,-0.8427,-0.843,-0.8513,-0.8523,-0.8532,0,0,0,0,0,-0.8869,-0.8883,-0.8856,-0.8845,-0.8771,-0.8737,-0.8727,-0.8668,-0.8641,-0.8645,-0.8598,-0.8552,-0.8491,-0.8477,-0.8467,-0.8483,-0.8423,-0.8426,-0.843,-0.8509,-0.8521,-0.8532,0,0,0,0,0,0,-0.8957,-0.8873,-0.8842,-0.8834,-0.8793,-0.8721,-0.8724,-0.8683,-0.8649,-0.8642,-0.8571,-0.8556,-0.8547,-0.8513,-0.8499,-0.8492,-0.8451,-0.8453,-0.8515,-0.8525,-0.8535,-0.8543,-0.8429,0,0,0,0,0,-0.8976,-0.8955,-0.8883,-0.8883,-0.8864,-0.8798,-0.8781,-0.874,-0.8694,-0.8676,-0.8628,-0.8586,-0.8557,-0.8539,-0.8508,-0.8508,-0.8492,-0.8514,-0.8524,-0.8532,-0.8534,-0.8533,-0.8542,-0.8444,-0.8443,-0.8443,0,0,-0.9013,-0.8965,-0.8956,-0.8899,-0.8863,-0.8844,-0.8784,-0.8765,-0.875,-0.8673,-0.8654,-0.8618,-0.8566,-0.8558,-0.8551,-0.8529,-0.8558,-0.8536,-0.8543,-0.8541,-0.8537,-0.8547,-0.8555,-0.8446,-0.8446,-0.8445,0,0,-0.9073,-0.9034,-0.903,-0.8996,-0.8942,-0.8898,-0.8898,-0.8832,-0.8805,-0.8785,-0.8728,-0.8709,-0.866,-0.8626,-0.8602,-0.8651,-0.8608,-0.8643,-0.8691,-0.8691,-0.8699,-0.8705,-0.8724,-0.8731,-0.8646,-0.8646,-0.8646,0,-0.9126,-0.9095,-0.9033,-0.9019,-0.8996,-0.8927,-0.8923,-0.8892,-0.8832,-0.8817,-0.8793,-0.8732,-0.8692,-0.8676,-0.8688,-0.8671,-0.8668,-0.865,-0.8703,-0.8709,-0.8714,-0.873,-0.8737,-0.8651,-0.865,-0.865,-0.8649,0,-0.9164,-0.9143,-0.9147,-0.9091,-0.9068,-0.9059,-0.8997,-0.8981,-0.8943,-0.8902,-0.8883,-0.8833,-0.8792,-0.8785,-0.8746,-0.8763,-0.8751,-0.8716,-0.8673,-0.8729,-0.8743,-0.8749,-0.8657,-0.8656,-0.8654,-0.8653,0,0,-0.9274,-0.9186,-0.9188,-0.9163,-0.91,-0.9082,-0.9071,-0.9032,-0.902,-0.8981,-0.897,-0.8932,-0.8899,-0.8872,-0.883,-0.8829,-0.8873,-0.8794,-0.8792,-0.8811,-0.889,-0.8917,-0.8925,-0.8844,-0.8845,-0.8846,-0.8894,0,-0.9323,-0.9298,-0.9244,-0.9236,-0.9217,-0.9152,-0.9142,-0.9103,-0.9065,-0.9043,-0.9,-0.8974,-0.8933,-0.8917,-0.8914,-0.8868,-0.8888,-0.8864,-0.8833,-0.8833,-0.8849,-0.8933,-0.8961,-0.9009,-0.89,-0.89,-0.8901,0,-0.9377,-0.9343,-0.9334,-0.9274,-0.9264,-0.9256,-0.9216,-0.9196,-0.915,-0.9122,-0.9094,-0.9047,-0.9032,-0.8993,-0.8972,-0.8957,-0.8941,-0.8917,-0.8918,-0.8912,-0.887,-0.893,-0.9023,-0.903,-0.8909,-0.8909,-0.8908,0,-0.9459,-0.9411,-0.94,-0.938,-0.9309,-0.9306,-0.9276,-0.9228,-0.9209,-0.9174,-0.9161,-0.9125,-0.9106,-0.9079,-0.9024,-0.9001,-0.9009,-0.8965,-0.8986,-0.8987,-0.899,-0.8991,-0.9082,-0.898,-0.898,-0.898,-0.898,0,-0.952,-0.9517,-0.9436,-0.943,-0.9425,-0.9363,-0.936,-0.9324,-0.9283,-0.9268,-0.921,-0.9197,-0.9126,-0.9105,-0.9062,-0.9051,-0.9042,-0.902,-0.9009,-0.9025,-0.9028,-0.9014,-0.9009,-0.8982,-0.8981,-0.8981,-0.8981,0,-0.9611,-0.9556,-0.954,-0.9475,-0.9459,-0.9459,-0.9403,-0.9394,-0.9353,-0.9335,-0.9327,-0.9263,-0.9236,-0.9179,-0.9136,-0.9107,-0.9107,-0.9086,-0.9123,-0.9115,-0.914,-0.9139,-0.9225,-0.9233,-0.9126,-0.9128,-0.9128,0,-0.9653,-0.965,-0.9585,-0.9571,-0.9544,-0.9523,-0.9503,-0.9442,-0.9424,-0.9373,-0.9371,-0.9339,-0.9311,-0.927,-0.922,-0.9187,-0.9165,-0.9198,-0.916,-0.9177,-0.9167,-0.9168,-0.9168,-0.9206,-0.9208,-0.9209,-0.921,0,-0.9735,-0.9708,-0.9682,-0.9648,-0.9626,-0.9596,-0.9562,-0.9554,-0.9485,-0.9468,-0.944,-0.9419,-0.9376,-0.9345,-0.9305,-0.9274,-0.9231,-0.9223,-0.9226,-0.9243,-0.9265,-0.9254,-0.9146,-0.9221,-0.922,-0.9219,-0.9218,-0.9218,-0.9803,-0.9797,-0.9751,-0.9725,-0.9694,-0.9664,-0.9653,-0.9612,-0.9587,-0.9548,-0.9514,-0.9489,-0.9445,-0.9387,-0.9359,-0.9339,-0.9318,-0.9322,-0.9323,-0.9326,-0.9333,-0.9268,-0.9332,-0.9331,-0.9331,-0.9331,-0.933,0,-0.9882,-0.9849,-0.9826,-0.9781,-0.9761,-0.9723,-0.9684,-0.967,-0.9649,-0.9612,-0.9586,-0.9555,-0.9526,-0.9474,-0.944,-0.9435,-0.9414,-0.9428,-0.9428,-0.9422,-0.9354,-0.9355,-0.9445,-0.9445,-0.9445,-0.9445,-0.9445,-0.9445,-0.992,-0.991,-0.9879,-0.9852,-0.982,-0.9796,-0.9777,-0.975,-0.972,-0.9688,-0.9664,-0.9631,-0.9588,-0.9551,-0.9523,-0.9509,-0.9499,-0.952,-0.9499,-0.9437,-0.9426,-0.9416,-0.9416,-0.9518,-0.9518,-0.9568,-0.9569,-0.9569]},{"header":{"parameterUnit":"m.s-1","parameterCategory":1,"la1":30.2991,"la2":30.254,"lo1":-89.0895,"lo2":-89.0444,"dy":0.0017,"dx":0.0017,"nx":28,"ny":28,"refTime":"2024-07-28T03:00:00:Z","depth":0,"parameterNumber":3,"parameterNumberName":"V-component_of_WINDS"},"data":[0,0,0,0,0,0,0,0,0,0,0,0,0,0,0,0,0,0,0,0,0,0,0,0,0,0,0,0,0,0,0,0,0,0,0,0,0,0,0,0,0,0,0,0,0,0,0,0,0,0,0,0,0,0,0,0,0,0,2.7328,2.7328,0,2.7325,2.7325,2.7325,2.7366,2.7367,2.7368,2.7369,2.7361,2.736,2.7359,0,0,0,0,0,0,0,0,0,0,0,0,0,2.7367,2.7366,2.7328,2.7328,2.7328,2.7325,2.7325,2.7325,2.7366,2.7367,2.7368,2.737,2.7362,2.736,2.7359,0,0,0,0,0,0,0,0,0,0,0,0,0,2.7355,2.7365,2.7328,2.7348,2.735,2.7325,2.7325,2.7325,2.7365,2.7367,2.7369,2.737,2.7362,2.736,2.7359,2.7313,0,0,2.7353,2.7352,0,0,0,0,0,0,0,0,2.7356,2.7354,2.7345,2.7347,2.7349,2.7348,2.7336,2.7321,2.7365,2.7359,2.7369,2.7371,2.7355,2.7354,2.7349,2.7313,2.7312,2.7353,2.7351,2.7351,2.735,0,0,0,0,0,0,0,2.7356,2.7354,2.7327,2.7345,2.7347,2.7356,2.7357,2.7333,2.7348,2.736,2.7363,2.7362,2.7356,2.7351,2.735,2.7312,2.7353,2.7351,2.735,2.7349,2.7239,2.7237,0,0,0,0,0,0,2.7355,2.7354,2.7327,2.7327,2.7357,2.7354,2.7355,2.7346,2.7348,2.735,2.7361,2.7364,2.7354,2.7352,2.7349,2.7297,2.7351,2.7349,2.7348,2.7241,2.7239,2.7237,0,0,0,0,0,0,2.7356,2.7352,2.7327,2.7342,2.7339,2.7352,2.7342,2.7345,2.734,2.7349,2.7351,2.7353,2.7355,2.7352,2.7322,2.7297,2.7348,2.7346,2.7243,2.724,2.7238,2.7191,0,0,0,0,0,0,2.7357,2.7352,2.7336,2.7341,2.7338,2.7301,2.7341,2.7344,2.7337,2.7342,2.7342,2.7344,2.7356,2.7325,2.732,2.7296,2.7345,2.7245,2.7242,2.7238,2.7195,2.7187,2.7181,0,0,0,0,0,2.7358,2.7322,2.7335,2.7331,2.7318,2.7299,2.7298,2.7314,2.7335,2.7318,2.7324,2.7344,2.7301,2.7322,2.7317,2.7291,2.7247,2.7243,2.7239,2.7198,2.7189,2.7181,0,0,0,0,0,0,2.7311,2.7323,2.7337,2.7302,2.73,2.7306,2.7286,2.7303,2.7293,2.7298,2.7317,2.7317,2.7284,2.7284,2.7307,2.7248,2.7277,2.7272,2.7248,2.7239,2.7232,2.7233,2.7343,0,0,0,0,0,2.7297,2.7283,2.7293,2.726,2.7259,2.7272,2.7265,2.7278,2.7275,2.7274,2.7278,2.7274,2.726,2.7249,2.7237,2.7196,2.7196,2.7176,2.7168,2.7162,2.7158,2.7137,2.7128,2.7223,2.7223,2.7224,0,0,2.7267,2.7272,2.7261,2.7251,2.7251,2.7235,2.7271,2.7252,2.7239,2.7271,2.7244,2.7246,2.7243,2.7207,2.7192,2.7207,2.7131,2.7157,2.7152,2.7151,2.7131,2.7122,2.7114,2.7221,2.7221,2.7222,0,0,2.7205,2.7207,2.7181,2.718,2.718,2.719,2.7183,2.7188,2.7191,2.7164,2.7188,2.7173,2.7148,2.7145,2.714,2.7078,2.7096,2.7073,2.7035,2.7014,2.7007,2.7,2.6978,2.697,2.7068,2.7068,2.7068,0,2.7167,2.7145,2.7164,2.7144,2.7139,2.7169,2.7142,2.714,2.7135,2.713,2.7148,2.7118,2.7118,2.7083,2.7068,2.7063,2.7056,2.7073,2.7007,2.7,2.6994,2.6974,2.6965,2.7065,2.7066,2.7066,2.7066,0,2.7099,2.7083,2.7061,2.7058,2.705,2.7027,2.7042,2.7032,2.7046,2.7053,2.7026,2.7027,2.7015,2.7008,2.702,2.6975,2.6984,2.7004,2.7034,2.6982,2.6963,2.6955,2.7062,2.7063,2.7063,2.7064,0,0,2.7006,2.7015,2.7007,2.7006,2.7009,2.6996,2.6974,2.6964,2.6955,2.6951,2.6932,2.6911,2.693,2.6925,2.6937,2.6919,2.687,2.6941,2.6941,2.6928,2.682,2.6805,2.6796,2.6882,2.6881,2.688,2.6821,0,2.6945,2.6909,2.6927,2.6888,2.6874,2.6902,2.6883,2.6882,2.6888,2.6876,2.6883,2.6868,2.6893,2.689,2.6874,2.6879,2.6849,2.6884,2.6864,2.6864,2.6865,2.6786,2.677,2.6714,2.6813,2.6812,2.6811,0,2.6869,2.6864,2.6825,2.6831,2.6826,2.6808,2.6801,2.6789,2.6789,2.6795,2.679,2.6807,2.6784,2.6815,2.6785,2.6808,2.6802,2.6803,2.6802,2.68,2.6834,2.6782,2.6697,2.6688,2.6799,2.68,2.6801,0,2.6806,2.6789,2.6763,2.6762,2.6768,2.6756,2.6757,2.6759,2.6752,2.6746,2.6742,2.6732,2.6727,2.6719,2.6733,2.6754,2.67,2.6732,2.6704,2.6704,2.6692,2.6692,2.6604,2.6687,2.6687,2.6687,2.6687,0,2.6737,2.6711,2.6735,2.6719,2.6692,2.6712,2.6684,2.6689,2.669,2.6675,2.6698,2.6684,2.6703,2.669,2.67,2.6674,2.6671,2.6675,2.6678,2.6673,2.6672,2.6668,2.6672,2.6685,2.6685,2.6686,2.6686,0,2.6661,2.6676,2.665,2.6659,2.6661,2.664,2.6648,2.6633,2.6642,2.6623,2.6619,2.6633,2.6618,2.6632,2.6618,2.6625,2.659,2.6598,2.659,2.6593,2.6565,2.6567,2.647,2.6459,2.6549,2.6548,2.6548,0,2.6615,2.6597,2.6605,2.6598,2.6599,2.6586,2.658,2.6599,2.6592,2.6591,2.6576,2.6565,2.6556,2.6532,2.654,2.653,2.6538,2.6505,2.6537,2.6533,2.6538,2.6539,2.6538,2.6498,2.6497,2.6497,2.6496,0,2.6534,2.6542,2.6534,2.6528,2.6521,2.6516,2.6514,2.6506,2.6526,2.6517,2.6504,2.6497,2.6484,2.6472,2.6465,2.6466,2.6484,2.6486,2.6479,2.6474,2.647,2.6472,2.6573,2.6488,2.6489,2.6489,2.649,2.649,2.6472,2.6457,2.6461,2.6451,2.6451,2.6449,2.6436,2.6444,2.6434,2.6426,2.6438,2.6421,2.6422,2.6414,2.6413,2.64,2.6414,2.6404,2.6401,2.6398,2.6395,2.6472,2.6399,2.6399,2.6399,2.6399,2.6399,0,2.6392,2.6396,2.6386,2.6383,2.6375,2.6395,2.6393,2.6385,2.6371,2.6371,2.6363,2.6348,2.6337,2.6344,2.6335,2.6323,2.6331,2.632,2.6321,2.6321,2.6382,2.639,2.6313,2.6313,2.6313,2.6313,2.6313,2.6313,2.6349,2.6325,2.6335,2.6312,2.6316,2.6302,2.6299,2.6297,2.6297,2.628,2.6271,2.6277,2.628,2.6271,2.6261,2.6264,2.6259,2.6245,2.625,2.6308,2.6316,2.6324,2.6331,2.6244,2.6244,2.619,2.6189,2.6189]}]]